| time (UTC) | temp F | wind direction | speed knots | gust knots | rain 1hr in | rain 24hr in | rain mn in | humidity % | barometer mb |
| 20260506092154 | 66 | 227 | 2.6 | 2.6 | 0.00 | 0.00 | 0.00 | 44 | 988.0 |
| 20260506091652 | 66 | 229 | 1.7 | 1.7 | 0.00 | 0.00 | 0.00 | 43 | 987.9 |
| 20260506091149 | 66 | 232 | 3.5 | 4.3 | 0.00 | 0.00 | 0.00 | 43 | 987.8 |
| 20260506090647 | 66 | 234 | 3.5 | 4.3 | 0.00 | 0.00 | 0.00 | 43 | 987.9 |
| 20260506090143 | 66 | 233 | 3.5 | 5.2 | 0.00 | 0.00 | 0.00 | 43 | 987.9 |
| 20260506085640 | 66 | 230 | 1.7 | 1.7 | 0.00 | 0.00 | 0.00 | 43 | 987.7 |
| 20260506085136 | 66 | 236 | 4.3 | 6.1 | 0.00 | 0.00 | 0.00 | 43 | 987.9 |
| 20260506084633 | 66 | 219 | 4.3 | 5.2 | 0.00 | 0.00 | 0.00 | 43 | 987.7 |
| 20260506084130 | 66 | 231 | 4.3 | 6.1 | 0.00 | 0.00 | 0.00 | 43 | 987.8 |
| 20260506083626 | 66 | 251 | 4.3 | 5.2 | 0.00 | 0.00 | 0.00 | 43 | 987.9 |
| 20260506083124 | 66 | 229 | 4.3 | 5.2 | 0.00 | 0.00 | 0.00 | 44 | 987.6 |
| 20260506082621 | 66 | 233 | 2.6 | 4.3 | 0.00 | 0.00 | 0.00 | 44 | 987.7 |
| 20260506082116 | 66 | 242 | 5.2 | 7.0 | 0.00 | 0.00 | 0.00 | 44 | 987.5 |
| 20260506081615 | 66 | 225 | 2.6 | 4.3 | 0.00 | 0.00 | 0.00 | 44 | 987.9 |
| 20260506081112 | 65 | 222 | 3.5 | 5.2 | 0.00 | 0.00 | 0.00 | 44 | 987.7 |
| 20260506080610 | 65 | 222 | 3.5 | 4.3 | 0.00 | 0.00 | 0.00 | 44 | 987.6 |
| 20260506080106 | 66 | 229 | 3.5 | 4.3 | 0.00 | 0.00 | 0.00 | 44 | 988.0 |
| 20260506073050 | 65 | 229 | 0.9 | 0.9 | 0.00 | 0.00 | 0.00 | 45 | 987.8 |
| 20260506072547 | 66 | 225 | 1.7 | 1.7 | 0.00 | 0.00 | 0.00 | 44 | 987.9 |
| 20260506072044 | 66 | 237 | 3.5 | 4.3 | 0.00 | 0.00 | 0.00 | 44 | 987.6 |
| 20260506071542 | 66 | 239 | 2.6 | 4.3 | 0.00 | 0.00 | 0.00 | 44 | 987.7 |
| 20260506071039 | 66 | 233 | 2.6 | 5.2 | 0.00 | 0.00 | 0.00 | 44 | 987.5 |
| 20260506070536 | 66 | 223 | 1.7 | 2.6 | 0.00 | 0.00 | 0.00 | 44 | 987.5 |
| 20260506062514 | 67 | 225 | 0.9 | 0.9 | 0.00 | 0.00 | 0.00 | 42 | 987.3 |
| 20260506062010 | 67 | 225 | 1.7 | 1.7 | 0.00 | 0.00 | 0.00 | 42 | 987.5 |
| 20260506061506 | 67 | 220 | 1.7 | 2.6 | 0.00 | 0.00 | 0.00 | 42 | 987.3 |
| 20260506061004 | 67 | 244 | 1.7 | 2.6 | 0.00 | 0.00 | 0.00 | 42 | 987.5 |
| 20260506060502 | 67 | 232 | 2.6 | 4.3 | 0.00 | 0.00 | 0.00 | 42 | 987.4 |
| 20260506050931 | 68 | 250 | 0.0 | 0.9 | 0.00 | 0.00 | 0.00 | 40 | 987.1 |
| 20260506050429 | 68 | 226 | 0.9 | 1.7 | 0.00 | 0.00 | 0.00 | 40 | 987.1 |
| 20260506044919 | 68 | 231 | 1.7 | 2.6 | 0.00 | 0.00 | 0.00 | 40 | 986.9 |
| 20260506044417 | 69 | 242 | 2.6 | 2.6 | 0.00 | 0.00 | 0.00 | 40 | 986.8 |
| 20260506043914 | 69 | 233 | 1.7 | 2.6 | 0.00 | 0.00 | 0.00 | 39 | 986.7 |
| 20260506043411 | 69 | 224 | 0.0 | 0.9 | 0.00 | 0.00 | 0.00 | 39 | 986.8 |
| 20260506042909 | 69 | 233 | 0.9 | 1.7 | 0.00 | 0.00 | 0.00 | 39 | 986.8 |
| 20260506042408 | 69 | 227 | 2.6 | 2.6 | 0.00 | 0.00 | 0.00 | 39 | 986.8 |
| 20260506041906 | 69 | 232 | 1.7 | 1.7 | 0.00 | 0.00 | 0.00 | 39 | 986.5 |
| 20260506041403 | 70 | 241 | 0.9 | 1.7 | 0.00 | 0.00 | 0.00 | 39 | 986.4 |
| 20260506040900 | 70 | 229 | 1.7 | 2.6 | 0.00 | 0.00 | 0.00 | 38 | 986.5 |
| 20260506040358 | 70 | 233 | 4.3 | 4.3 | 0.00 | 0.00 | 0.00 | 38 | 986.4 |
| 20260506035853 | 70 | 248 | 2.6 | 4.3 | 0.00 | 0.00 | 0.00 | 37 | 986.2 |
| 20260506035351 | 70 | 235 | 1.7 | 2.6 | 0.00 | 0.00 | 0.00 | 37 | 986.1 |
| 20260506034848 | 70 | 224 | 0.9 | 1.7 | 0.00 | 0.00 | 0.00 | 38 | 986.0 |
| 20260506034345 | 70 | 249 | 2.6 | 4.3 | 0.00 | 0.00 | 0.00 | 37 | 986.0 |
| 20260506033842 | 71 | 255 | 1.7 | 1.7 | 0.00 | 0.00 | 0.00 | 37 | 986.0 |
| 20260506033339 | 71 | 231 | 2.6 | 2.6 | 0.00 | 0.00 | 0.00 | 37 | 986.2 |
| 20260506032836 | 71 | 224 | 0.0 | 0.0 | 0.00 | 0.00 | 0.00 | 37 | 985.9 |
| 20260506032333 | 71 | 230 | 4.3 | 5.2 | 0.00 | 0.00 | 0.00 | 36 | 986.0 |
| 20260506031830 | 71 | 228 | 1.7 | 1.7 | 0.00 | 0.00 | 0.00 | 36 | 985.7 |
| 20260506031327 | 72 | 226 | 1.7 | 2.6 | 0.00 | 0.00 | 0.00 | 36 | 985.5 |
| 20260506030825 | 72 | 240 | 3.5 | 5.2 | 0.00 | 0.00 | 0.00 | 35 | 985.6 |
| 20260506030323 | 72 | 234 | 2.6 | 2.6 | 0.00 | 0.00 | 0.00 | 35 | 985.5 |
| 20260506025819 | 72 | 245 | 3.5 | 5.2 | 0.00 | 0.00 | 0.00 | 35 | 985.5 |
| 20260506025315 | 72 | 246 | 2.6 | 2.6 | 0.00 | 0.00 | 0.00 | 35 | 985.5 |
| 20260506024813 | 72 | 224 | 4.3 | 7.0 | 0.00 | 0.00 | 0.00 | 34 | 985.5 |
| 20260506024309 | 72 | 233 | 3.5 | 4.3 | 0.00 | 0.00 | 0.00 | 34 | 985.5 |
| 20260506023805 | 73 | 247 | 2.6 | 4.3 | 0.00 | 0.00 | 0.00 | 34 | 985.3 |
| 20260506023303 | 73 | 236 | 2.6 | 4.3 | 0.00 | 0.00 | 0.00 | 34 | 985.1 |
| 20260506022759 | 73 | 246 | 3.5 | 4.3 | 0.00 | 0.00 | 0.00 | 34 | 985.3 |
| 20260506022257 | 73 | 236 | 5.2 | 7.8 | 0.00 | 0.00 | 0.00 | 34 | 985.3 |
| 20260506021755 | 73 | 297 | 1.7 | 1.7 | 0.00 | 0.00 | 0.00 | 34 | 985.0 |
| 20260506021252 | 73 | 242 | 2.6 | 5.2 | 0.00 | 0.00 | 0.00 | 34 | 984.8 |
| 20260506020748 | 73 | 248 | 6.1 | 7.0 | 0.00 | 0.00 | 0.00 | 34 | 984.7 |
| 20260506020247 | 74 | 219 | 4.3 | 7.8 | 0.00 | 0.00 | 0.00 | 34 | 984.7 |
| 20260506015744 | 74 | 248 | 6.1 | 8.7 | 0.00 | 0.00 | 0.00 | 34 | 984.9 |
| 20260506015241 | 74 | 212 | 7.0 | 7.8 | 0.00 | 0.00 | 0.00 | 33 | 984.7 |
| 20260506014738 | 75 | 247 | 5.2 | 7.0 | 0.00 | 0.00 | 0.00 | 33 | 984.7 |
| 20260506014234 | 75 | 247 | 4.3 | 7.8 | 0.00 | 0.00 | 0.00 | 32 | 984.6 |
| 20260506013732 | 75 | 261 | 1.7 | 2.6 | 0.00 | 0.00 | 0.00 | 31 | 984.5 |
| 20260506013229 | 75 | 227 | 2.6 | 4.3 | 0.00 | 0.00 | 0.00 | 32 | 984.6 |
| 20260506012725 | 76 | 270 | 5.2 | 7.8 | 0.00 | 0.00 | 0.00 | 31 | 984.6 |
| 20260506012222 | 75 | 238 | 7.0 | 11.3 | 0.00 | 0.00 | 0.00 | 32 | 984.3 |
| 20260506011719 | 76 | 232 | 7.0 | 8.7 | 0.00 | 0.00 | 0.00 | 32 | 984.4 |
| 20260506011215 | 76 | 216 | 6.1 | 8.7 | 0.00 | 0.00 | 0.00 | 31 | 984.4 |
| 20260506010714 | 76 | 250 | 6.1 | 7.8 | 0.00 | 0.00 | 0.00 | 31 | 984.4 |
| 20260506010211 | 76 | 236 | 4.3 | 6.1 | 0.00 | 0.00 | 0.00 | 31 | 984.2 |
| 20260506005708 | 77 | 214 | 5.2 | 6.1 | 0.00 | 0.00 | 0.00 | 31 | 984.2 |
| 20260506005205 | 77 | 243 | 2.6 | 5.2 | 0.00 | 0.00 | 0.00 | 30 | 984.3 |
| 20260506004701 | 77 | 228 | 5.2 | 7.0 | 0.00 | 0.00 | 0.00 | 31 | 984.1 |
| 20260506004159 | 77 | 295 | 4.3 | 9.6 | 0.00 | 0.00 | 0.00 | 31 | 984.1 |
| 20260506003654 | 78 | 300 | 3.5 | 5.2 | 0.00 | 0.00 | 0.00 | 30 | 984.0 |
| 20260506003151 | 77 | 272 | 3.5 | 5.2 | 0.00 | 0.00 | 0.00 | 30 | 984.2 |
| 20260506002647 | 77 | 252 | 4.3 | 6.1 | 0.00 | 0.00 | 0.00 | 31 | 983.9 |
| 20260506002143 | 77 | 239 | 7.0 | 11.3 | 0.00 | 0.00 | 0.00 | 31 | 983.9 |
| 20260506001639 | 77 | 215 | 4.3 | 5.2 | 0.00 | 0.00 | 0.00 | 31 | 984.0 |
| 20260506001137 | 77 | 227 | 7.0 | 11.3 | 0.00 | 0.00 | 0.00 | 32 | 983.8 |
| 20260506000634 | 77 | 240 | 2.6 | 4.3 | 0.00 | 0.00 | 0.00 | 32 | 983.9 |
| 20260506000131 | 77 | 217 | 3.5 | 6.1 | 0.00 | 0.00 | 0.00 | 32 | 984.0 |
| 20260505235629 | 77 | 255 | 7.8 | 8.7 | 0.00 | 0.00 | 0.00 | 33 | 983.8 |
| 20260505235125 | 78 | 233 | 3.5 | 7.0 | 0.00 | 0.00 | 0.00 | 32 | 983.8 |
| 20260505234617 | 78 | 242 | 4.3 | 6.1 | 0.00 | 0.00 | 0.00 | 30 | 983.7 |
| 20260505234114 | 77 | 222 | 9.6 | 13.0 | 0.00 | 0.00 | 0.00 | 31 | 983.7 |
| 20260505233612 | 78 | 234 | 2.6 | 6.1 | 0.00 | 0.00 | 0.00 | 31 | 983.7 |
| 20260505233109 | 78 | 217 | 4.3 | 6.1 | 0.00 | 0.00 | 0.00 | 31 | 983.8 |
| 20260505232606 | 77 | 248 | 6.1 | 9.6 | 0.00 | 0.00 | 0.00 | 31 | 983.6 |
| 20260505232104 | 78 | 249 | 6.1 | 8.7 | 0.00 | 0.00 | 0.00 | 29 | 984.0 |
| 20260505231600 | 78 | 245 | 6.1 | 7.8 | 0.00 | 0.00 | 0.00 | 29 | 983.7 |
| 20260505231059 | 77 | 237 | 4.3 | 7.8 | 0.00 | 0.00 | 0.00 | 30 | 983.9 |
| 20260505230556 | 78 | 234 | 7.0 | 11.3 | 0.00 | 0.00 | 0.00 | 30 | 983.8 |
| 20260505230052 | 77 | 260 | 7.0 | 8.7 | 0.00 | 0.00 | 0.00 | 31 | 984.0 |
| 20260505225549 | 77 | 200 | 2.6 | 4.3 | 0.00 | 0.00 | 0.00 | 33 | 984.0 |
| 20260505225045 | 77 | 236 | 3.5 | 5.2 | 0.00 | 0.00 | 0.00 | 33 | 984.0 |
| 20260505224537 | 77 | 218 | 7.8 | 11.3 | 0.00 | 0.00 | 0.00 | 32 | 983.9 |
| 20260505224034 | 78 | 237 | 7.0 | 9.6 | 0.00 | 0.00 | 0.00 | 31 | 984.1 |
| 20260505223531 | 78 | 224 | 2.6 | 2.6 | 0.00 | 0.00 | 0.00 | 31 | 984.3 |
| 20260505223027 | 77 | 261 | 3.5 | 7.8 | 0.00 | 0.00 | 0.00 | 32 | 984.3 |
| 20260505222524 | 77 | 213 | 3.5 | 4.3 | 0.00 | 0.00 | 0.00 | 33 | 984.5 |
| 20260505222020 | 78 | 237 | 7.0 | 7.8 | 0.00 | 0.00 | 0.00 | 32 | 984.6 |
| 20260505221517 | 78 | 282 | 4.3 | 7.0 | 0.00 | 0.00 | 0.00 | 33 | 984.3 |
| 20260505221013 | 77 | 224 | 1.7 | 2.6 | 0.00 | 0.00 | 0.00 | 32 | 984.6 |
| 20260505220511 | 75 | 234 | 3.5 | 4.3 | 0.00 | 0.00 | 0.00 | 34 | 984.5 |
| 20260505220009 | 76 | 256 | 6.1 | 7.8 | 0.00 | 0.00 | 0.00 | 34 | 984.8 |
| 20260505215506 | 76 | 224 | 4.3 | 6.1 | 0.00 | 0.00 | 0.00 | 35 | 984.6 |
| 20260505215003 | 76 | 276 | 2.6 | 4.3 | 0.00 | 0.00 | 0.00 | 35 | 984.8 |
| 20260505214501 | 76 | 229 | 6.1 | 7.0 | 0.00 | 0.00 | 0.00 | 34 | 984.9 |
| 20260505213953 | 76 | 219 | 4.3 | 7.0 | 0.00 | 0.00 | 0.00 | 34 | 985.0 |
| 20260505213451 | 77 | 291 | 4.3 | 6.1 | 0.00 | 0.00 | 0.00 | 34 | 984.9 |
| 20260505212947 | 77 | 219 | 2.6 | 6.1 | 0.00 | 0.00 | 0.00 | 33 | 984.8 |
| 20260505212443 | 76 | 245 | 4.3 | 5.2 | 0.00 | 0.00 | 0.00 | 34 | 985.1 |
| 20260505211940 | 76 | 289 | 4.3 | 7.0 | 0.00 | 0.00 | 0.00 | 35 | 985.0 |
| 20260505211438 | 76 | 233 | 7.0 | 7.8 | 0.00 | 0.00 | 0.00 | 35 | 985.3 |
| 20260505210934 | 76 | 241 | 2.6 | 4.3 | 0.00 | 0.00 | 0.00 | 35 | 985.3 |
| 20260505210431 | 75 | 270 | 2.6 | 4.3 | 0.00 | 0.00 | 0.00 | 35 | 985.1 |
| 20260505205927 | 76 | 235 | 4.3 | 7.0 | 0.00 | 0.00 | 0.00 | 35 | 985.3 |
| 20260505205426 | 76 | 247 | 4.3 | 5.2 | 0.00 | 0.00 | 0.00 | 36 | 985.4 |
| 20260505204923 | 77 | 257 | 4.3 | 5.2 | 0.00 | 0.00 | 0.00 | 34 | 985.3 |
| 20260505204420 | 77 | 225 | 7.8 | 8.7 | 0.00 | 0.00 | 0.00 | 34 | 985.3 |
| 20260505203918 | 78 | 288 | 7.0 | 8.7 | 0.00 | 0.00 | 0.00 | 35 | 985.1 |
| 20260505203413 | 76 | 260 | 7.8 | 8.7 | 0.00 | 0.00 | 0.00 | 36 | 985.2 |
| 20260505202909 | 76 | 228 | 2.6 | 2.6 | 0.00 | 0.00 | 0.00 | 35 | 985.3 |
| 20260505202406 | 76 | 275 | 1.7 | 2.6 | 0.00 | 0.00 | 0.00 | 35 | 985.4 |
| 20260505201902 | 76 | 316 | 5.2 | 7.8 | 0.00 | 0.00 | 0.00 | 36 | 985.5 |
| 20260505201400 | 76 | 281 | 4.3 | 6.1 | 0.00 | 0.00 | 0.00 | 35 | 985.5 |
| 20260505200858 | 74 | 264 | 6.1 | 7.8 | 0.00 | 0.00 | 0.00 | 36 | 985.5 |
| 20260505200355 | 75 | 246 | 5.2 | 7.0 | 0.00 | 0.00 | 0.00 | 36 | 985.5 |
| 20260505195850 | 75 | 253 | 4.3 | 7.8 | 0.00 | 0.00 | 0.00 | 35 | 985.5 |
| 20260505195348 | 75 | 240 | 3.5 | 5.2 | 0.00 | 0.00 | 0.00 | 36 | 985.7 |
| 20260505194845 | 74 | 267 | 7.0 | 9.6 | 0.00 | 0.00 | 0.00 | 37 | 985.7 |
| 20260505194343 | 76 | 227 | 3.5 | 5.2 | 0.00 | 0.00 | 0.00 | 36 | 985.7 |
| 20260505193837 | 75 | 260 | 4.3 | 6.1 | 0.00 | 0.00 | 0.00 | 36 | 985.6 |
| 20260505193336 | 75 | 218 | 1.7 | 2.6 | 0.00 | 0.00 | 0.00 | 37 | 985.8 |
| 20260505192833 | 75 | 280 | 4.3 | 6.1 | 0.00 | 0.00 | 0.00 | 37 | 985.7 |
| 20260505192332 | 75 | 270 | 7.0 | 7.8 | 0.00 | 0.00 | 0.00 | 37 | 986.0 |
| 20260505191829 | 76 | 260 | 4.3 | 5.2 | 0.00 | 0.00 | 0.00 | 37 | 985.8 |
| 20260505191327 | 77 | 225 | 6.1 | 7.8 | 0.00 | 0.00 | 0.00 | 37 | 985.9 |
| 20260505190823 | 76 | 223 | 6.1 | 7.8 | 0.00 | 0.00 | 0.00 | 36 | 986.1 |
| 20260505190319 | 75 | 237 | 5.2 | 9.6 | 0.00 | 0.00 | 0.00 | 36 | 986.1 |
| 20260505185815 | 76 | 232 | 4.3 | 6.1 | 0.00 | 0.00 | 0.00 | 38 | 986.2 |
| 20260505185312 | 75 | 230 | 2.6 | 5.2 | 0.00 | 0.00 | 0.00 | 38 | 986.1 |
| 20260505184807 | 74 | 230 | 7.0 | 7.8 | 0.00 | 0.00 | 0.00 | 40 | 986.1 |
| 20260505184305 | 74 | 213 | 4.3 | 5.2 | 0.00 | 0.00 | 0.00 | 40 | 986.1 |
| 20260505183802 | 74 | 205 | 1.7 | 2.6 | 0.00 | 0.00 | 0.00 | 40 | 986.4 |
| 20260505183259 | 74 | 218 | 2.6 | 4.3 | 0.00 | 0.00 | 0.00 | 39 | 986.2 |
| 20260505182755 | 74 | 233 | 6.1 | 7.8 | 0.00 | 0.00 | 0.00 | 40 | 986.2 |
| 20260505182252 | 74 | 205 | 4.3 | 6.1 | 0.00 | 0.00 | 0.00 | 41 | 986.4 |
| 20260505181749 | 74 | 205 | 4.3 | 7.0 | 0.00 | 0.00 | 0.00 | 40 | 986.5 |
| 20260505181246 | 74 | 241 | 2.6 | 4.3 | 0.00 | 0.00 | 0.00 | 39 | 986.5 |
| 20260505180743 | 74 | 220 | 3.5 | 6.1 | 0.00 | 0.00 | 0.00 | 41 | 986.6 |
| 20260505180239 | 74 | 184 | 4.3 | 5.2 | 0.00 | 0.00 | 0.00 | 39 | 986.5 |
| 20260505175736 | 74 | 207 | 0.9 | 0.9 | 0.00 | 0.00 | 0.00 | 40 | 986.6 |
| 20260505175232 | 74 | 210 | 2.6 | 2.6 | 0.00 | 0.00 | 0.00 | 40 | 986.6 |
| 20260505174728 | 72 | 208 | 2.6 | 2.6 | 0.00 | 0.00 | 0.00 | 44 | 986.6 |
| 20260505174226 | 73 | 215 | 5.2 | 7.8 | 0.00 | 0.00 | 0.00 | 43 | 986.5 |
| 20260505173722 | 73 | 62 | 4.3 | 6.1 | 0.00 | 0.00 | 0.00 | 44 | 986.5 |
| 20260505173219 | 72 | 262 | 0.9 | 1.7 | 0.00 | 0.00 | 0.00 | 43 | 986.1 |
| 20260505172716 | 71 | 217 | 3.5 | 4.3 | 0.00 | 0.00 | 0.00 | 44 | 986.6 |
| 20260505172212 | 73 | 226 | 5.2 | 7.0 | 0.00 | 0.00 | 0.00 | 43 | 986.6 |
| 20260505171712 | 72 | 203 | 2.6 | 4.3 | 0.00 | 0.00 | 0.00 | 42 | 986.5 |
| 20260505171209 | 72 | 218 | 2.6 | 2.6 | 0.00 | 0.00 | 0.00 | 42 | 986.5 |
| 20260505170706 | 71 | 216 | 5.2 | 7.0 | 0.00 | 0.00 | 0.00 | 43 | 986.4 |
| 20260505170203 | 71 | 219 | 3.5 | 5.2 | 0.00 | 0.00 | 0.00 | 43 | 986.4 |
| 20260505165658 | 70 | 218 | 1.7 | 1.7 | 0.00 | 0.00 | 0.00 | 44 | 986.6 |
| 20260505165154 | 70 | 217 | 0.9 | 0.9 | 0.00 | 0.00 | 0.00 | 45 | 986.5 |
| 20260505164650 | 70 | 214 | 3.5 | 4.3 | 0.00 | 0.00 | 0.00 | 44 | 986.6 |
| 20260505164147 | 70 | 234 | 3.5 | 5.2 | 0.00 | 0.00 | 0.00 | 43 | 986.6 |
| 20260505163645 | 69 | 229 | 1.7 | 2.6 | 0.00 | 0.00 | 0.00 | 45 | 986.7 |
| 20260505163143 | 71 | 240 | 3.5 | 4.3 | 0.00 | 0.00 | 0.00 | 44 | 986.6 |
| 20260505162641 | 69 | 223 | 2.6 | 2.6 | 0.00 | 0.00 | 0.00 | 45 | 986.4 |
| 20260505162138 | 69 | 237 | 3.5 | 5.2 | 0.00 | 0.00 | 0.00 | 46 | 986.7 |
| 20260505161635 | 68 | 232 | 1.7 | 2.6 | 0.00 | 0.00 | 0.00 | 45 | 986.8 |
| 20260505161132 | 69 | 244 | 3.5 | 5.2 | 0.00 | 0.00 | 0.00 | 45 | 986.5 |
| 20260505160630 | 69 | 237 | 2.6 | 2.6 | 0.00 | 0.00 | 0.00 | 46 | 986.7 |
| 20260505160127 | 68 | 231 | 0.9 | 1.7 | 0.00 | 0.00 | 0.00 | 46 | 986.6 |
| 20260505153107 | 68 | 227 | 6.1 | 7.0 | 0.00 | 0.00 | 0.00 | 47 | 986.5 |
| 20260505152604 | 68 | 229 | 4.3 | 5.2 | 0.00 | 0.00 | 0.00 | 47 | 986.6 |
| 20260505152059 | 68 | 262 | 6.1 | 7.0 | 0.00 | 0.00 | 0.00 | 46 | 986.1 |
| 20260505151554 | 68 | 251 | 3.5 | 5.2 | 0.00 | 0.00 | 0.00 | 45 | 986.4 |
| 20260505151052 | 68 | 240 | 4.3 | 6.1 | 0.00 | 0.00 | 0.00 | 46 | 986.2 |
| 20260505150548 | 68 | 233 | 4.3 | 7.0 | 0.00 | 0.00 | 0.00 | 46 | 986.2 |
| 20260505140514 | 66 | 226 | 4.3 | 6.1 | 0.00 | 0.00 | 0.00 | 51 | 986.0 |
| 20260505124926 | 65 | 223 | 3.5 | 4.3 | 0.00 | 0.00 | 0.00 | 62 | 985.3 |
| 20260505124423 | 65 | 221 | 0.0 | 0.9 | 0.00 | 0.00 | 0.00 | 62 | 985.2 |
| 20260505123920 | 66 | 222 | 1.7 | 1.7 | 0.00 | 0.00 | 0.00 | 61 | 985.5 |
| 20260505123416 | 65 | 228 | 1.7 | 1.7 | 0.00 | 0.00 | 0.00 | 61 | 985.4 |
| 20260505122912 | 65 | 223 | 2.6 | 2.6 | 0.00 | 0.00 | 0.00 | 61 | 985.2 |
| 20260505122409 | 65 | 228 | 0.9 | 0.9 | 0.00 | 0.00 | 0.00 | 61 | 985.3 |
| 20260505121906 | 66 | 231 | 0.0 | 0.9 | 0.00 | 0.00 | 0.00 | 61 | 985.2 |
| 20260505121403 | 66 | 223 | 1.7 | 1.7 | 0.00 | 0.00 | 0.00 | 61 | 985.1 |
| 20260505120858 | 66 | 215 | 2.6 | 2.6 | 0.00 | 0.00 | 0.00 | 60 | 985.3 |
| 20260505120355 | 66 | 240 | 2.6 | 2.6 | 0.00 | 0.00 | 0.00 | 60 | 985.1 |
| 20260505115854 | 66 | 235 | 1.7 | 1.7 | 0.00 | 0.00 | 0.00 | 60 | 985.1 |
| 20260505115351 | 66 | 224 | 0.0 | 0.0 | 0.00 | 0.00 | 0.00 | 60 | 985.1 |
| 20260505114849 | 66 | 239 | 2.6 | 4.3 | 0.00 | 0.00 | 0.00 | 59 | 985.0 |
| 20260505114345 | 66 | 239 | 2.6 | 4.3 | 0.00 | 0.00 | 0.00 | 59 | 985.2 |
| 20260505113841 | 66 | 224 | 4.3 | 5.2 | 0.00 | 0.00 | 0.00 | 59 | 985.0 |
| 20260505113338 | 66 | 232 | 0.9 | 1.7 | 0.00 | 0.00 | 0.00 | 59 | 985.0 |
| 20260505112834 | 66 | 224 | 2.6 | 2.6 | 0.00 | 0.00 | 0.00 | 59 | 985.0 |
| 20260505112331 | 66 | 227 | 0.9 | 0.9 | 0.00 | 0.00 | 0.00 | 59 | 985.0 |
| 20260505111827 | 66 | 230 | 2.6 | 2.6 | 0.00 | 0.00 | 0.00 | 59 | 984.9 |
| 20260505111323 | 66 | 226 | 2.6 | 2.6 | 0.00 | 0.00 | 0.00 | 58 | 984.8 |
| 20260505110819 | 67 | 225 | 2.6 | 4.3 | 0.00 | 0.00 | 0.00 | 58 | 984.7 |
| 20260505110317 | 67 | 217 | 3.5 | 5.2 | 0.00 | 0.00 | 0.00 | 58 | 984.8 |
| 20260505101751 | 68 | 229 | 1.7 | 2.6 | 0.00 | 0.00 | 0.00 | 55 | 985.2 |
| 20260505101246 | 68 | 230 | 5.2 | 5.2 | 0.00 | 0.00 | 0.00 | 56 | 985.3 |
| 20260505100743 | 68 | 234 | 2.6 | 4.3 | 0.00 | 0.00 | 0.00 | 56 | 985.5 |
| 20260505100240 | 68 | 228 | 2.6 | 2.6 | 0.00 | 0.00 | 0.00 | 55 | 985.5 |
| 20260505095735 | 68 | 227 | 1.7 | 2.6 | 0.00 | 0.00 | 0.00 | 56 | 985.5 |
| 20260505095233 | 68 | 227 | 5.2 | 7.0 | 0.00 | 0.00 | 0.00 | 56 | 985.6 |
| 20260505094729 | 68 | 229 | 4.3 | 7.0 | 0.00 | 0.00 | 0.00 | 56 | 985.7 |
| 20260505094225 | 68 | 217 | 5.2 | 6.1 | 0.00 | 0.00 | 0.00 | 56 | 985.7 |
| 20260505093721 | 69 | 218 | 1.7 | 1.7 | 0.00 | 0.00 | 0.00 | 55 | 985.6 |
| 20260505093219 | 69 | 256 | 2.6 | 6.1 | 0.00 | 0.00 | 0.00 | 54 | 985.7 |
| 20260505092716 | 69 | 237 | 2.6 | 5.2 | 0.00 | 0.00 | 0.00 | 53 | 985.6 |